Madison, MN

1:54 PM CDT on September 18, 2019 (GMT -0500)
Madison-Lac Qui Parle County

Weather History for KDXX - July, 2019

Change the Weather History Date:

Saturday, July 27, 2019

  Actual Average (KAQP) Record (KAQP)
Temperature  
Mean Temperature 74 °F -  
Max Temperature 87 °F 79 °F 91 °F (2010)
Min Temperature 62 °F 59 °F 44 °F (2005)
Cooling Degree Days 10    
Growing Degree Days 24 (Base 50)    
Moisture  
Dew Point 62 °F    
Average Humidity 65    
Maximum Humidity 94    
Minimum Humidity 40    
Precipitation  
Precipitation 0.00 in - - ()
Sea Level Pressure  
Sea Level Pressure 30.02 in    
Wind  
Wind Speed 4 mph (NW)    
Max Wind Speed 9 mph    
Max Gust Speed -    
Visibility 10 miles    
Events      
Averages and records for this station are not official NWS values.
T = Trace of Precipitation, MM = Missing Value Source: NWS Daily Summary

Daily Weather History Graph

Daily Weather History Graph

Search for Another Location

Airport or City:

Astronomy

Jul. 27, 2019 Rise Set
Actual Time 6:04 AM CDT 8:57 PM CDT
Civil Twilight 5:29 AM CDT 9:31 PM CDT
Nautical Twilight 4:46 AM CDT 10:15 PM CDT
Astronomical Twilight 3:54 AM CDT 11:06 PM CDT
Moon 1:53 AM CDT (7/27) 4:49 PM CDT (7/27)
Length of Visible Light 16h 01m
Length of Day
14h 53m
Waning Crescent, 24% of the Moon is Illuminated
Jul 27
Waning Crescent
Jul 31
New
Aug 7
First Quarter
Aug 15
Full
Aug 23
Last Quarter

Hourly Weather History & Observations

Time (CDT) Temp. Heat Index Dew Point Humidity Pressure Visibility Wind Dir Wind Speed Gust Speed Precip Events Conditions
12:15 AM 68.0 °F - 60.8 °F 78% 29.99 in 10.0 mi West 5.8 mph - N/A   Clear
12:35 AM 66.2 °F - 62.6 °F 88% 29.99 in 10.0 mi West 5.8 mph - N/A   Clear
12:36 AM 66.2 °F - 62.6 °F 88% 29.99 in 10.0 mi West 5.8 mph - N/A   Clear
12:55 AM 66.2 °F - 60.8 °F 83% 29.99 in 10.0 mi West 5.8 mph - N/A   Clear
12:56 AM 66.2 °F - 60.8 °F 83% 29.99 in 10.0 mi West 5.8 mph - N/A   Clear
1:18 AM 66.2 °F - 60.8 °F 83% 29.99 in 10.0 mi WNW 5.8 mph - N/A   Clear
1:37 AM 66.2 °F - 60.8 °F 83% 29.99 in 10.0 mi WNW 5.8 mph - N/A   Clear
1:56 AM 64.4 °F - 60.8 °F 88% 30.00 in 10.0 mi NW 3.5 mph - N/A   Clear
2:15 AM 66.2 °F - 60.8 °F 83% 30.00 in 10.0 mi WNW 4.6 mph - N/A   Clear
2:16 AM 66.2 °F - 60.8 °F 83% 30.00 in 10.0 mi WNW 4.6 mph - N/A   Clear
2:35 AM 66.2 °F - 60.8 °F 83% 30.00 in 10.0 mi WNW 5.8 mph - N/A   Clear
2:58 AM 66.2 °F - 60.8 °F 83% 30.00 in 10.0 mi West 6.9 mph - N/A   Clear
3:15 AM 64.4 °F - 60.8 °F 88% 30.00 in 10.0 mi WNW 5.8 mph - N/A   Clear
3:35 AM 64.4 °F - 60.8 °F 88% 30.00 in 10.0 mi WNW 5.8 mph - N/A   Clear
3:36 AM 64.4 °F - 60.8 °F 88% 30.00 in 10.0 mi WNW 5.8 mph - N/A   Clear
3:55 AM 66.2 °F - 59.0 °F 78% 30.00 in 10.0 mi NW 8.1 mph - N/A   Clear
3:56 AM 66.2 °F - 59.0 °F 78% 30.00 in 10.0 mi NW 6.9 mph - N/A   Clear
4:19 AM 66.2 °F - 60.8 °F 83% 30.00 in 10.0 mi WNW 4.6 mph - N/A   Clear
4:36 AM 64.4 °F - 59.0 °F 83% 30.01 in 10.0 mi Calm Calm - N/A   Clear
4:56 AM 64.4 °F - 60.8 °F 88% 30.01 in 10.0 mi Calm Calm - N/A   Clear
5:15 AM 64.4 °F - 59.0 °F 83% 30.01 in 10.0 mi WSW 3.5 mph - N/A   Clear
5:16 AM 64.4 °F - 59.0 °F 83% 30.01 in 10.0 mi WSW 3.5 mph - N/A   Clear
5:35 AM 62.6 °F - 60.8 °F 94% 30.02 in 10.0 mi SSW 5.8 mph - N/A   Clear
5:39 AM 62.6 °F - 60.8 °F 94% 30.02 in 10.0 mi SW 4.6 mph - N/A   Clear
5:58 AM 62.6 °F - 60.8 °F 94% 30.03 in 10.0 mi SW 6.9 mph - N/A   Clear
6:16 AM 62.6 °F - 60.8 °F 94% 30.03 in 10.0 mi Calm Calm - N/A   Clear
6:35 AM 62.6 °F - 60.8 °F 94% 30.03 in 10.0 mi Calm Calm - N/A   Clear
6:36 AM 62.6 °F - 60.8 °F 94% 30.03 in 10.0 mi Calm Calm - N/A   Clear
6:55 AM 64.4 °F - 60.8 °F 88% 30.03 in 10.0 mi Calm Calm - N/A   Clear
7:18 AM 66.2 °F - 60.8 °F 83% 30.03 in 10.0 mi WNW 3.5 mph - N/A   Clear
7:36 AM 69.8 °F - 62.6 °F 78% 30.04 in 10.0 mi West 4.6 mph - N/A   Clear
7:55 AM 69.8 °F - 62.6 °F 78% 30.04 in 10.0 mi Calm Calm - N/A   Clear
7:56 AM 69.8 °F - 62.6 °F 78% 30.04 in 10.0 mi Calm Calm - N/A   Clear
8:15 AM 71.6 °F - 62.6 °F 73% 30.05 in 10.0 mi West 3.5 mph - N/A   Clear
8:16 AM 71.6 °F - 62.6 °F 73% 30.04 in 10.0 mi West 3.5 mph - N/A   Clear
8:35 AM 73.4 °F - 64.4 °F 73% 30.05 in 10.0 mi West 3.5 mph - N/A   Clear
8:39 AM 73.4 °F - 62.6 °F 69% 30.05 in 10.0 mi West 3.5 mph - N/A   Clear
8:58 AM 75.2 °F - 62.6 °F 65% 30.05 in 10.0 mi WSW 3.5 mph - N/A   Clear
9:15 AM 77.0 °F - 62.6 °F 61% 30.06 in 10.0 mi WSW 3.5 mph - N/A   Clear
9:35 AM 78.8 °F - 64.4 °F 61% 30.06 in 10.0 mi SW 3.5 mph - N/A   Clear
9:36 AM 78.8 °F - 64.4 °F 61% 30.05 in 10.0 mi Calm Calm - N/A   Clear
9:55 AM 78.8 °F - 64.4 °F 61% 30.05 in 10.0 mi Calm Calm - N/A   Clear
10:19 AM 80.6 °F 81.8 °F 62.6 °F 54% 30.05 in 10.0 mi NNW 3.5 mph - N/A   Clear
10:37 AM 80.6 °F 82.3 °F 64.4 °F 58% 30.05 in 10.0 mi Calm Calm - N/A   Clear
10:56 AM 80.6 °F 82.3 °F 64.4 °F 58% 30.05 in 10.0 mi WNW 4.6 mph - N/A   Clear
11:15 AM 82.4 °F 83.4 °F 62.6 °F 51% 30.06 in 10.0 mi WNW 4.6 mph - N/A   Clear
11:16 AM 82.4 °F 83.4 °F 62.6 °F 51% 30.06 in 10.0 mi WNW 4.6 mph - N/A   Clear
11:35 AM 82.4 °F 83.4 °F 62.6 °F 51% 30.05 in 10.0 mi North 4.6 mph - N/A   Clear
11:57 AM 82.4 °F 82.0 °F 57.2 °F 42% 30.05 in 10.0 mi WNW 5.8 mph - N/A   Clear
12:16 PM 82.4 °F 82.0 °F 57.2 °F 42% 30.05 in 10.0 mi North 9.2 mph - N/A   Clear
12:35 PM 82.4 °F 82.0 °F 57.2 °F 42% 30.05 in 10.0 mi NNW 5.8 mph - N/A   Clear
12:36 PM 82.4 °F 82.0 °F 57.2 °F 42% 30.05 in 10.0 mi NNW 5.8 mph - N/A   Clear
12:55 PM 84.2 °F 83.5 °F 57.2 °F 40% 30.04 in 10.0 mi NNW 8.1 mph - N/A   Clear
12:56 PM 84.2 °F 83.5 °F 57.2 °F 40% 30.04 in 10.0 mi NNW 9.2 mph - N/A   Clear
1:19 PM 84.2 °F 84.4 °F 60.8 °F 45% 30.04 in 10.0 mi NNW 6.9 mph - N/A   Clear
1:36 PM 84.2 °F 84.4 °F 60.8 °F 45% 30.04 in 10.0 mi North 6.9 mph - N/A   Clear
1:56 PM 84.2 °F 84.4 °F 60.8 °F 45% 30.03 in 10.0 mi Calm Calm - N/A   Clear
2:15 PM 84.2 °F 84.4 °F 60.8 °F 45% 30.03 in 10.0 mi North 4.6 mph - N/A   Clear
2:16 PM 84.2 °F 84.4 °F 60.8 °F 45% 30.03 in 10.0 mi NNW 4.6 mph - N/A   Clear
2:35 PM 84.2 °F 84.4 °F 60.8 °F 45% 30.04 in 10.0 mi WNW 3.5 mph - N/A   Clear
2:39 PM 84.2 °F 83.8 °F 59.0 °F 42% 30.03 in 10.0 mi Calm Calm - N/A   Clear
2:58 PM 84.2 °F 84.4 °F 60.8 °F 45% 30.03 in 10.0 mi North 3.5 mph - N/A   Clear
3:15 PM 84.2 °F 84.4 °F 60.8 °F 45% 30.03 in 10.0 mi Calm Calm - N/A   Clear
3:35 PM 84.2 °F 84.4 °F 60.8 °F 45% 30.02 in 10.0 mi NE 3.5 mph - N/A   Clear
3:36 PM 86.0 °F 86.1 °F 60.8 °F 43% 30.02 in 10.0 mi NE 3.5 mph - N/A   Clear
3:55 PM 86.0 °F 86.1 °F 60.8 °F 43% 30.02 in 10.0 mi North 3.5 mph - N/A   Clear
3:56 PM 86.0 °F 86.1 °F 60.8 °F 43% 30.02 in 10.0 mi Calm Calm - N/A   Clear
4:18 PM 86.0 °F 86.1 °F 60.8 °F 43% 30.02 in 10.0 mi Calm Calm - N/A   Clear
4:37 PM 86.0 °F 86.6 °F 62.6 °F 45% 30.02 in 10.0 mi WNW 4.6 mph - N/A   Clear
4:56 PM 87.8 °F 87.6 °F 60.8 °F 40% 30.02 in 10.0 mi Calm Calm - N/A   Clear
5:15 PM 86.0 °F 86.6 °F 62.6 °F 45% 30.01 in 10.0 mi Calm Calm - N/A   Clear
5:16 PM 86.0 °F 86.6 °F 62.6 °F 45% 30.01 in 10.0 mi Calm Calm - N/A   Clear
5:35 PM 86.0 °F 86.6 °F 62.6 °F 45% 30.01 in 10.0 mi ENE 3.5 mph - N/A   Clear
5:57 PM 84.2 °F 85.6 °F 64.4 °F 51% 30.01 in 10.0 mi East 5.8 mph - N/A   Clear
6:15 PM 84.2 °F 85.6 °F 64.4 °F 51% 30.00 in 10.0 mi ENE 4.6 mph - N/A   Clear
6:35 PM 84.2 °F 85.6 °F 64.4 °F 51% 30.00 in 10.0 mi NE 4.6 mph - N/A   Clear
6:55 PM 84.2 °F 85.6 °F 64.4 °F 51% 30.00 in 10.0 mi NNE 3.5 mph - N/A   Clear
6:56 PM 84.2 °F 85.6 °F 64.4 °F 51% 30.00 in 10.0 mi NNE 3.5 mph - N/A   Clear
7:19 PM 82.4 °F 84.6 °F 66.2 °F 58% 30.00 in 10.0 mi NE 3.5 mph - N/A   Clear
7:36 PM 82.4 °F 84.6 °F 66.2 °F 58% 30.00 in 10.0 mi NE 3.5 mph - N/A   Clear
7:56 PM 80.6 °F 82.7 °F 66.2 °F 61% 30.00 in 10.0 mi East 4.6 mph - N/A   Clear
8:15 PM 80.6 °F 82.7 °F 66.2 °F 61% 30.00 in 10.0 mi East 3.5 mph - N/A   Clear
8:35 PM 78.8 °F - 66.2 °F 65% 30.00 in 10.0 mi East 3.5 mph - N/A   Clear
8:40 PM 78.8 °F - 66.2 °F 65% 30.00 in 10.0 mi East 3.5 mph - N/A   Clear
8:58 PM 75.2 °F - 66.2 °F 73% 30.00 in 10.0 mi ENE 3.5 mph - N/A   Clear
9:15 PM 75.2 °F - 66.2 °F 73% 30.00 in 10.0 mi East 5.8 mph - N/A   Clear
9:35 PM 73.4 °F - 64.4 °F 73% 30.00 in 10.0 mi East 4.6 mph - N/A   Clear
9:36 PM 73.4 °F - 64.4 °F 73% 30.00 in 10.0 mi East 4.6 mph - N/A   Clear
9:55 PM 71.6 °F - 64.4 °F 78% 30.01 in 10.0 mi East 4.6 mph - N/A   Clear
10:18 PM 71.6 °F - 64.4 °F 78% 30.01 in 10.0 mi ESE 3.5 mph - N/A   Clear